Regional Weather Roundup
Issued by NWS

Home | Current Version | Previous Version | Graphics & Text | Print | Product List | Glossary On
Versions: 1 2 3 4 5 6 7 8 9 10 11 12 13 14 15 16 17 18 19 20 21 22 23 24 25 26 27 28 29 30 31 32 33 34 35 36 37 38 39 40 41 42 43 44 45 46 47 48
000
ASUS45 KCYS 290910
RWRWY

WYOMING REGIONAL WEATHER ROUNDUP
NATIONAL WEATHER SERVICE CHEYENNE WY
300 AM MDT TUE JUL 29 2014

NOTE:  "FAIR" INDICATES FEW OR NO CLOUDS BELOW 12,000 FEET
WITH NO SIGNIFICANT WEATHER AND/OR OBSTRUCTIONS TO VISIBILITY.

WYZ001-291000-
YELLOWSTONE NATIONAL PARK

CITY           SKY/WX    TMP DP  RH WIND       PRES   REMARKS
LK YELLOWSTONE   N/A     53  47  79 VRB5      30.50F
W YELLOWSTONE  NOT AVBL

$$
WYZ002>013-054>058-071-098>099-291000-
NORTHERN WYOMING

CITY           SKY/WX    TMP DP  RH WIND       PRES   REMARKS
JACKSON        CLOUDY    64  46  52 N8        30.34S
CODY           NOT AVBL
GREYBULL       CLOUDY    77  48  35 NE7       30.18R
WORLAND        PTCLDY    69  51  52 S8        30.20F
SHERIDAN       CLOUDY    69  49  48 NE5       30.24R
BUFFALO        CLOUDY    67  49  52 SW7       30.30F
GILLETTE       TSTM      63  57  82 SE6       30.30R
HULETT         FAIR      59  50  72 MISG      30.27
NEWCASTLE      FAIR      64  50  59 NW8       30.27

$$
WYZ014>020-022>026-101>103-291000-
CENTRAL WYOMING

CITY           SKY/WX    TMP DP  RH WIND       PRES   REMARKS
BIG PINEY      CLOUDY    66  42  41 NE12      30.34F
PINEDALE       CLOUDY    59  43  55 NW7       30.35F
DUBOIS         CLOUDY    63  37  39 SE8       30.37S
LANDER         CLOUDY    70  43  37 NW9       30.26F
RIVERTON       CLOUDY    67  43  41 NW6       30.27S
CASPER         MOCLDY    63  51  65 NE12      30.28R
DOUGLAS        PTCLDY    61  52  72 NE5       30.25S

$$
WYZ021-027>030-104>119-291000-
SOUTHERN WYOMING

CITY           SKY/WX    TMP DP  RH WIND       PRES   REMARKS
EVANSTON       CLOUDY    57  54  89 SW5       30.37F
FORT BRIDGER   CLOUDY    62  52  69 W9        30.38F
ROCK SPRINGS   CLOUDY    65  46  50 SW10      30.32F
DIXON          PTSUNNY   64  48  57 E3        30.37S
RAWLINS        CLOUDY    67  46  47 S13G20    30.34R
SARATOGA       FAIR      61  46  59 E5        30.37S
LARAMIE        MOCLDY    57  51  80 SE3       30.36F
CHEYENNE       PTCLDY    57  52  83 W5        30.31S
TORRINGTON     PTCLDY    61  57  87 E10       30.20F
PINE BLUFFS    FAIR      55  54  94 CALM      30.26F

$$


USA.gov is the U.S. government's official web portal to all federal, state and local government web resources and services.